Regional Weather Roundup
Issued by NWS Charleston, WV

Home | Current Version | Previous Version | Graphics & Text | Print | Product List | Glossary On
Versions: 1 2 3 4 5 6 7 8 9 10 11 12 13 14 15 16 17 18 19 20 21 22 23 24 25 26 27 28 29 30 31 32 33 34 35 36 37 38 39 40 41 42 43 44 45 46 47 48 49 50
000
ASUS41 KRLX 281710
RWRRLX
West Virginia Regional Weather Roundup
National Weather Service Charleston WV
1200 PM EST WED JAN 28 2015

Note: "fair" indicates few or no clouds below 12,000 feet with no
significant weather and/or obstructions to visibility.

WVZ003-281800-
Northern Panhandle of West Virginia

CITY           SKY/WX    TMP DP  RH WIND       PRES   REMARKS
WHEELING       SUNNY     18  10  71 VRB3      30.34F
$$

WVZ009-281800-
Northwest West Virginia

CITY           SKY/WX    TMP DP  RH WIND       PRES   REMARKS
PARKERSBURG    SUNNY     24  12  60 CALM      30.41F
$$

WVZ006-281800-
Western West Virginia

CITY           SKY/WX    TMP DP  RH WIND       PRES   REMARKS
HUNTINGTON     SUNNY     26  15  63 CALM      30.37F
$$

WVZ015-281800-
West Central West Virginia

CITY           SKY/WX    TMP DP  RH WIND       PRES   REMARKS
CHARLESTON     MOSUNNY   24  15  68 S3        30.37F
$$

WVZ022-031-281800-
North Central West Virginia

CITY           SKY/WX    TMP DP  RH WIND       PRES   REMARKS
CLARKSBURG     MIX PCPN  22  14  71 NW6       30.35F
MORGANTOWN     MOSUNNY   20   9  62 SW7       30.35F
$$

WVZ025-035-042-045-281800-
Southern West Virginia

CITY           SKY/WX    TMP DP  RH WIND       PRES   REMARKS
BECKLEY        PTSUNNY   22  15  75 NW9       30.24F
LOGAN          CLOUDY    23  18  80 CALM      30.32F
BLUEFIELD      SUNNY     25  15  66 W7        30.22S
LEWISBURG      SUNNY     29  17  59 CALM      30.21F
$$

WVZ047-281800-
Northern Mountains of West Virginia

CITY           SKY/WX    TMP DP  RH WIND       PRES   REMARKS
ELKINS         SUNNY     23  12  62 CALM      30.28F
$$

WVZ052-281800-
Eastern Panhandle of West Virginia

CITY           SKY/WX    TMP DP  RH WIND       PRES   REMARKS
MARTINSBURG    MOSUNNY   30   6  36 NW9G22    30.26S
PETERSBURG       N/A     30   4  32 CALM      30.28F
$$



USA.gov is the U.S. government's official web portal to all federal, state and local government web resources and services.